Rbgn^[z[y[W
メイン
   新天体発見情報
     Comet C/2022 Q2 (ATLAS)
投稿するにはまず登録を

フラット表示 前のトピック | 次のトピック
投稿者 スレッド
佐藤裕久
投稿日時: 2022-9-12 12:18
モデレータ
登録日: 2005-6-12
居住地: 日本
投稿: 2573
オンライン
Comet C/2022 Q2 (ATLAS)

8月27日UT、ハワイ Mauna Loaにある小惑星地球衝突最終警報システム Asteroid Terrestrial-
impact Last Alert System (ATLAS)調査プログラムのコースに0.5-m f/2 Schmidt反射望遠鏡で得た
CCD画像から小惑星状天体が発見された。
小惑星センターのPCCP webpageに公表後、A. Aletti, F. Bellini, L. Buzziと G. Galli (8月29.0
日UT, 60-秒露出59枚のスタック, 0.36-m f/8.4 反射望遠鏡, Hakos, ナミビア: 5"の集光したコマ
が見え、p.a. 265°に10"ほどのまっすぐでかすかな尾がある。光度は19.2等であった)や佐藤英貴氏
(東京都文京区,8月30.5日, 60-秒露出10枚のスタック, 0.61-m f/6.5 アストログラフ, Sierra 
Remote 天文台, Auberry近郊, CA, 米国, 遠隔操作: 強く集光した8"のコマが見えるが尾はなかった。
5".0の円形範囲で測定した光度は19.1等であった)らCCD位置観測者によって彗星状と観測された。

彗星機能の報告は次のとおり、

OC   Date        Reporter           Coma    Tail    PA          Exposures
U69  2022-08-30  H. Sato            8"                         10x60s
G00  2022-09-02  M. Jaeger         18"                         11x210s
G00  2022-09-03  M. Jaeger         18"                          9x120s
W88  2022-09-03  B. Lutkenhoner     7"                         20x50s
W88  2022-09-03  N. Paul            6".7                       20x50s

発見位置は次のとおり、

     2022 UT             R.A. (2000) Decl.       Mag.
     Aug. 27.58700    3 01 16.89   - 1 23 13.3   19.0
          27.58882    3 01 16.73   - 1 23 16.2   19.2
          27.59429    3 01 16.28   - 1 23 17.8   19.0
          27.61658    3 01 14.34   - 1 23 29.9   19.1

MPCの楕円軌道要素、位置推算表は次のとおり、

Orbital elements:
    C/2022 Q2 (ATLAS)                                                           
Epoch 2022 Aug. 9.0 TT = JDT 2459800.5                                          
T 2023 Feb. 1.23032 TT                                  Rudenko                 
q   1.6406997            (2000.0)            P               Q                  
n   0.00663824     Peri.   44.40906     +0.63388255     -0.77122036             
a  28.0393202      Node   352.97991     -0.77286824     -0.62873735             
e   0.9414858      Incl.  151.44881     +0.02945496     +0.09954144             
P 148                                                                           
From 105 observations 2022 Aug. 27-Sept. 6, mean residual 0".4.                 
                                                                                
Ephemeris:
Date    TT    R. A. (2000) Decl.     Delta      r    Elong.  Phase   m1
2022 08 08    03 19 12.2 +00 42 59   2.5694  2.7241    87.7    21.8  19.4
...
2022 08 23    03 07 15.9 -00 44 32   2.1428  2.5911   104.7    22.2  18.8
...
2022 08 31    02 55 54.4 -01 56 22   1.9223  2.5210   115.0    21.3  18.4
...
2022 09 06    02 44 12.8 -03 04 41   1.7652  2.4690   123.5    19.9  18.2
2022 09 07    02 41 57.2 -03 17 23   1.7400  2.4604   125.0    19.6  18.1
2022 09 08    02 39 35.8 -03 30 28   1.7151  2.4518   126.5    19.3  18.1
...
2022 09 14    02 23 16.1 -04 57 24   1.5736  2.4004   135.9    17.0  17.8
...
2022 09 22    01 54 54.6 -07 14 37   1.4121  2.3329   149.4    12.7  17.4
...
2022 10 07    00 40 46.1 -11 57 11   1.2357  2.2099   162.6     7.8  16.9

(MPEC 2022-R123、CBET 5167) 

フラット表示 前のトピック | 次のトピック

題名 投稿者 日時
 » Comet C/2022 Q2 (ATLAS) 佐藤裕久 2022-9-12 12:18

投稿するにはまず登録を
 
© 1999 Tsutomu Seki.